Date String (YYYY-MM-DD hh:mm:ss) UTC,Instrument flags,Ambient pressure (hPa),Sample flow (lpm),Bypass flow (lpm),Sample temperature (°C),Ambient temperature (°C),ASC tube jacket temperature (°C),LED temperature (°C),Box temperature (°C),Sample RH (%),Span deviation,Mass concentration (μg/m³),Mass concentration (μg/m³),Mass concentration (μg/m³)
DateTimeUTC,F1_M11,P_M11,Q1_M11,Q2_M11,T1_M11,T2_M11,T3_M11,T4_M11,T5_M11,U1_M11,ZSPAN_M11,X0_M11,X2_M11,X1_M11
2022-10-21 20:00:00,,0817.8,5.00,0.00,29.6,28.1,00.0,38.5,31.4,07.1,0000.0,0008.22,0003.09,0002.41
2022-10-21 20:01:00,,0817.8,5.01,0.00,29.6,28.2,00.0,38.5,31.5,07.1,0000.0,0008.01,0003.07,0002.41
2022-10-21 20:02:00,,0817.8,4.97,0.00,29.6,28.3,00.0,38.5,31.5,07.1,0000.0,0008.25,0003.00,0002.38
2022-10-21 20:03:00,,0817.9,5.00,0.00,29.7,28.4,00.0,38.5,31.6,07.1,0000.0,0007.74,0002.97,0002.37
2022-10-21 20:04:00,,0818.0,5.01,0.00,29.7,28.5,00.0,38.5,31.6,07.1,0000.0,0007.38,0002.92,0002.36
2022-10-21 20:05:00,,0817.9,5.00,0.00,29.7,28.6,00.0,38.5,31.6,07.0,0000.0,0007.30,0002.86,0002.35
2022-10-21 20:06:00,,0817.8,4.99,0.00,29.8,28.6,00.0,38.6,31.7,06.9,0000.0,0007.29,0002.86,0002.34
2022-10-21 20:07:00,,0817.7,5.02,0.00,29.8,28.7,00.0,38.6,31.7,06.9,0000.0,0006.75,0002.85,0002.33
2022-10-21 20:08:00,,0817.6,5.00,0.00,29.8,28.5,00.0,38.6,31.7,06.9,0000.0,0005.58,0002.89,0002.34
2022-10-21 20:09:00,,0817.7,5.00,0.00,29.8,27.3,00.0,38.5,31.7,07.0,0000.0,0005.93,0002.92,0002.35
2022-10-21 20:10:00,,0817.6,5.00,0.00,29.8,26.8,00.0,38.5,31.7,06.9,0000.0,0006.95,0002.95,0002.35
2022-10-21 20:11:00,,0817.7,5.00,0.00,29.8,27.0,00.0,38.5,31.5,06.9,0000.0,0006.98,0002.93,0002.33
2022-10-21 20:12:00,,0817.6,4.99,0.00,29.7,27.2,00.0,38.5,31.4,07.0,0000.0,0006.52,0002.95,0002.33
2022-10-21 20:13:00,,0817.5,5.00,0.00,29.7,27.5,00.0,38.5,31.4,07.0,0000.0,0006.29,0002.98,0002.34
2022-10-21 20:14:00,,0817.5,4.99,0.00,29.7,27.8,00.0,38.5,31.4,07.0,0000.0,0006.14,0002.98,0002.34
2022-10-21 20:15:00,,0817.5,4.99,0.00,29.7,28.0,00.0,38.5,31.5,07.1,0000.0,0006.26,0003.03,0002.35
2022-10-21 20:16:00,,0817.4,5.00,0.00,29.7,28.1,00.0,38.5,31.5,07.2,0000.0,0006.64,0003.10,0002.38
2022-10-21 20:17:00,,0817.4,5.01,0.00,29.7,28.2,00.0,38.5,31.5,07.1,0000.0,0007.79,0003.15,0002.41
2022-10-21 20:18:00,,0817.5,5.00,0.00,29.7,28.3,00.0,38.5,31.6,07.1,0000.0,0008.21,0003.13,0002.41
2022-10-21 20:19:00,,0817.4,4.99,0.00,29.8,28.5,00.0,38.6,31.6,07.1,0000.0,0008.28,0003.09,0002.39
2022-10-21 20:20:00,,0817.5,5.00,0.00,29.8,28.5,00.0,38.6,31.7,07.0,0000.0,0009.09,0003.13,0002.40
2022-10-21 20:21:00,,0817.4,5.01,0.00,29.8,28.6,00.0,38.6,31.7,07.1,0000.0,0008.78,0003.15,0002.41
2022-10-21 20:22:00,,0817.3,5.00,0.00,29.8,28.7,00.0,38.6,31.8,07.2,0000.0,0008.81,0003.12,0002.40
2022-10-21 20:23:00,,0817.3,4.99,0.00,29.9,27.8,00.0,38.6,31.7,07.1,0000.0,0009.28,0003.14,0002.41
2022-10-21 20:24:00,,0817.3,4.99,0.00,29.8,26.4,00.0,38.5,31.5,07.0,0000.0,0009.38,0003.14,0002.42
2022-10-21 20:25:00,,0817.2,4.99,0.00,29.8,26.1,00.0,38.5,31.4,07.1,0000.0,0009.36,0003.14,0002.43
2022-10-21 20:26:00,,0817.2,5.02,0.00,29.7,26.3,00.0,38.4,31.2,07.1,0000.0,0009.37,0003.13,0002.43
2022-10-21 20:27:00,,0817.3,5.00,0.00,29.6,26.6,00.0,38.4,31.2,07.2,0000.0,0009.21,0003.09,0002.42
2022-10-21 20:28:00,,0817.3,4.99,0.00,29.6,27.0,00.0,38.4,31.2,07.2,0000.0,0008.48,0003.03,0002.41
2022-10-21 20:29:00,,0817.2,5.00,0.00,29.5,27.3,00.0,38.4,31.2,07.2,0000.0,0008.19,0003.05,0002.41
2022-10-21 20:30:00,,0817.2,5.00,0.00,29.5,27.5,00.0,38.4,31.3,07.2,0000.0,0008.16,0003.12,0002.44
2022-10-21 20:31:00,,0817.3,5.00,0.00,29.5,27.7,00.0,38.4,31.3,07.1,0000.0,0007.50,0003.06,0002.44
2022-10-21 20:32:00,,0817.3,4.99,0.00,29.5,27.9,00.0,38.4,31.4,07.1,0000.0,0007.09,0003.00,0002.43
2022-10-21 20:33:00,,0817.2,4.99,0.00,29.6,28.1,00.0,38.4,31.4,07.2,0000.0,0006.93,0003.00,0002.44
2022-10-21 20:34:00,,0817.2,5.01,0.00,29.6,28.2,00.0,38.4,31.4,07.0,0000.0,0007.14,0002.97,0002.44
2022-10-21 20:35:00,,0817.2,5.01,0.00,29.6,28.3,00.0,38.4,31.5,07.1,0000.0,0007.20,0002.96,0002.44
2022-10-21 20:36:00,,0817.2,5.00,0.00,29.6,28.4,00.0,38.4,31.5,07.1,0000.0,0007.21,0002.95,0002.44
2022-10-21 20:37:00,,0817.2,4.98,0.00,29.7,28.5,00.0,38.5,31.6,07.0,0000.0,0007.12,0002.93,0002.45
2022-10-21 20:38:00,,0817.3,5.00,0.00,29.7,28.5,00.0,38.5,31.6,07.1,0000.0,0007.10,0002.94,0002.45
2022-10-21 20:39:00,,0817.2,5.00,0.00,29.7,28.6,00.0,38.5,31.6,07.0,0000.0,0006.90,0002.95,0002.44
2022-10-21 20:40:00,,0817.1,5.01,0.00,29.8,28.6,00.0,38.5,31.7,07.0,0000.0,0006.83,0002.92,0002.43
2022-10-21 20:41:00,,0817.1,4.99,0.00,29.8,27.9,00.0,38.5,31.6,06.9,0000.0,0006.43,0002.86,0002.43
2022-10-21 20:42:00,,0817.1,5.00,0.00,29.8,26.8,00.0,38.5,31.5,07.0,0000.0,0006.32,0002.90,0002.43
2022-10-21 20:43:00,,0817.1,5.00,0.00,29.7,26.8,00.0,38.4,31.5,07.0,0000.0,0006.08,0002.89,0002.43
2022-10-21 20:44:00,,0817.1,4.99,0.00,29.7,27.0,00.0,38.4,31.3,07.0,0000.0,0006.10,0002.88,0002.43
2022-10-21 20:45:00,,0817.1,5.01,0.00,29.6,27.3,00.0,38.4,31.3,06.9,0000.0,0005.72,0002.94,0002.43
2022-10-21 20:46:00,,0817.0,5.00,0.00,29.6,27.6,00.0,38.4,31.4,07.0,0000.0,0005.86,0002.96,0002.42
2022-10-21 20:47:00,,0817.0,5.00,0.00,29.6,27.8,00.0,38.4,31.4,07.0,0000.0,0006.69,0002.96,0002.41
2022-10-21 20:48:00,,0817.1,5.00,0.00,29.6,28.0,00.0,38.4,31.4,06.9,0000.0,0006.87,0003.00,0002.40
2022-10-21 20:49:00,,0817.0,5.00,0.00,29.7,28.1,00.0,38.4,31.5,07.0,0000.0,0007.63,0002.98,0002.40
2022-10-21 20:50:00,,0817.0,4.99,0.00,29.7,28.3,00.0,38.5,31.6,07.1,0000.0,0007.76,0003.00,0002.39
2022-10-21 20:51:00,,0817.2,4.99,0.00,29.7,28.4,00.0,38.5,31.6,07.0,0000.0,0007.73,0003.00,0002.39
2022-10-21 20:52:00,,0817.1,5.01,0.00,29.7,28.5,00.0,38.5,31.7,07.1,0000.0,0007.60,0003.00,0002.38
2022-10-21 20:53:00,,0817.0,5.00,0.00,29.8,28.5,00.0,38.5,31.7,07.0,0000.0,0007.54,0002.96,0002.36
2022-10-21 20:54:00,,0817.1,5.00,0.00,29.8,28.3,00.0,38.5,31.7,07.0,0000.0,0008.09,0003.01,0002.36
2022-10-21 20:55:00,,0817.1,4.99,0.00,29.8,26.8,00.0,38.5,31.6,06.9,0000.0,0008.56,0003.07,0002.37
2022-10-21 20:56:00,,0817.2,4.99,0.00,29.7,25.9,00.0,38.4,31.4,07.0,0000.0,0008.96,0003.09,0002.38
2022-10-21 20:57:00,,0817.0,5.01,0.00,29.7,26.1,00.0,38.4,31.4,07.0,0000.0,0008.54,0003.04,0002.38
2022-10-21 20:58:00,,0817.0,5.01,0.00,29.6,26.4,00.0,38.3,31.2,07.1,0000.0,0008.32,0003.01,0002.38
2022-10-21 20:59:00,,0817.0,5.00,0.00,29.5,26.8,00.0,38.3,31.2,07.1,0000.0,0008.47,0003.00,0002.37
